| time (UTC) | temp C | wind direction | speed KPH | gust KPH | rain 1hr cm | rain 24hr cm | rain mn cm | humidity % | barometer mb |
| 20260906212242 | 31 | 108 | 11.3 | 14.5 | 0.00 | 0.00 | 0.00 | 37 | 1014.4 |
| 20260906211741 | 32 | 36 | 1.6 | 4.8 | 0.00 | 0.00 | 0.00 | 36 | 1014.2 |
| 20260906211237 | 32 | 25 | 8.0 | 11.3 | 0.00 | 0.00 | 0.00 | 37 | 1014.4 |
| 20260906210732 | 33 | 156 | 4.8 | 4.8 | 0.00 | 0.00 | 0.00 | 36 | 1014.7 |
| 20260906210227 | 32 | 179 | 0.0 | 0.0 | 0.00 | 0.00 | 0.00 | 35 | 1014.5 |
| 20260906205722 | 31 | 150 | 8.0 | 8.0 | 0.00 | 0.00 | 0.00 | 41 | 1014.7 |
| 20260906205219 | 32 | 81 | 0.0 | 0.0 | 0.00 | 0.00 | 0.00 | 38 | 1014.7 |
| 20260906204719 | 31 | 119 | 8.0 | 8.0 | 0.00 | 0.00 | 0.00 | 40 | 1014.8 |
| 20260906204218 | 31 | 105 | 0.0 | 0.0 | 0.00 | 0.00 | 0.00 | 41 | 1015.1 |
| 20260906203718 | 31 | 80 | 9.7 | 11.3 | 0.00 | 0.00 | 0.00 | 43 | 1015.1 |
| 20260906203213 | 31 | 125 | 1.6 | 3.2 | 0.00 | 0.00 | 0.00 | 43 | 1015.1 |
| 20260906202710 | 31 | 29 | 4.8 | 8.0 | 0.00 | 0.00 | 0.00 | 43 | 1015.1 |
| 20260906202209 | 30 | 144 | 6.4 | 8.0 | 0.00 | 0.00 | 0.00 | 44 | 1015.1 |
| 20260906201704 | 30 | 35 | 6.4 | 8.0 | 0.00 | 0.00 | 0.00 | 44 | 1015.2 |
| 20260906201203 | 30 | 42 | 11.3 | 16.1 | 0.00 | 0.00 | 0.00 | 45 | 1015.1 |
| 20260906200659 | 30 | 26 | 0.0 | 0.0 | 0.00 | 0.00 | 0.00 | 44 | 1015.3 |
| 20260906200155 | 30 | 52 | 9.7 | 14.5 | 0.00 | 0.00 | 0.00 | 45 | 1015.5 |
| 20260906195650 | 30 | 128 | 3.2 | 4.8 | 0.00 | 0.00 | 0.00 | 46 | 1015.5 |
| 20260906195147 | 29 | 62 | 3.2 | 4.8 | 0.00 | 0.00 | 0.00 | 42 | 1015.5 |
| 20260906194643 | 30 | 60 | 6.4 | 8.0 | 0.00 | 0.00 | 0.00 | 43 | 1015.3 |
| 20260906194138 | 29 | 54 | 8.0 | 11.3 | 0.00 | 0.00 | 0.00 | 46 | 1015.6 |
| 20260906193632 | 29 | 78 | 6.4 | 11.3 | 0.00 | 0.00 | 0.00 | 45 | 1015.6 |
| 20260906193128 | 30 | 55 | 11.3 | 14.5 | 0.00 | 0.00 | 0.00 | 44 | 1015.7 |
| 20260906192623 | 29 | 100 | 11.3 | 16.1 | 0.00 | 0.00 | 0.00 | 44 | 1015.5 |
| 20260906192122 | 30 | 75 | 11.3 | 14.5 | 0.00 | 0.00 | 0.00 | 45 | 1015.8 |
| 20260906191617 | 29 | 5 | 1.6 | 3.2 | 0.00 | 0.00 | 0.00 | 47 | 1015.7 |
| 20260906191116 | 29 | 63 | 3.2 | 3.2 | 0.00 | 0.00 | 0.00 | 47 | 1015.8 |
| 20260906190611 | 29 | 140 | 3.2 | 4.8 | 0.00 | 0.00 | 0.00 | 47 | 1015.9 |
| 20260906190106 | 30 | 85 | 8.0 | 11.3 | 0.00 | 0.00 | 0.00 | 47 | 1016.0 |
| 20260906185604 | 29 | 138 | 0.0 | 3.2 | 0.00 | 0.00 | 0.00 | 46 | 1016.1 |
| 20260906185104 | 30 | 88 | 8.0 | 11.3 | 0.00 | 0.00 | 0.00 | 45 | 1016.4 |
| 20260906184558 | 30 | 38 | 3.2 | 4.8 | 0.00 | 0.00 | 0.00 | 45 | 1016.7 |
| 20260906184054 | 29 | 124 | 1.6 | 3.2 | 0.00 | 0.00 | 0.00 | 46 | 1016.8 |
| 20260906183550 | 28 | 105 | 3.2 | 4.8 | 0.00 | 0.00 | 0.00 | 47 | 1016.6 |
| 20260906183046 | 28 | 153 | 0.0 | 3.2 | 0.00 | 0.00 | 0.00 | 50 | 1016.7 |
| 20260906182540 | 28 | 31 | 8.0 | 11.3 | 0.00 | 0.00 | 0.00 | 51 | 1016.8 |
| 20260906182037 | 28 | 116 | 4.8 | 8.0 | 0.00 | 0.00 | 0.00 | 51 | 1017.1 |
| 20260906181532 | 30 | 235 | 6.4 | 11.3 | 0.00 | 0.00 | 0.00 | 50 | 1017.3 |
| 20260906181027 | 30 | 214 | 3.2 | 4.8 | 0.00 | 0.00 | 0.00 | 48 | 1017.5 |
| 20260906180522 | 28 | 141 | 4.8 | 8.0 | 0.00 | 0.00 | 0.00 | 50 | 1017.4 |
| 20260906180021 | 28 | 71 | 0.0 | 0.0 | 0.00 | 0.00 | 0.00 | 52 | 1017.4 |
| 20260906175515 | 27 | 40 | 0.0 | 3.2 | 0.00 | 0.00 | 0.00 | 53 | 1017.6 |
| 20260906175014 | 28 | 323 | 11.3 | 14.5 | 0.00 | 0.00 | 0.00 | 52 | 1017.6 |
| 20260906174508 | 27 | 187 | 3.2 | 4.8 | 0.00 | 0.00 | 0.00 | 53 | 1017.9 |
| 20260906174003 | 27 | 51 | 4.8 | 4.8 | 0.00 | 0.00 | 0.00 | 55 | 1017.8 |
| 20260906173458 | 26 | 69 | 4.8 | 4.8 | 0.00 | 0.00 | 0.00 | 55 | 1018.0 |
| 20260906172957 | 27 | 349 | 4.8 | 4.8 | 0.00 | 0.00 | 0.00 | 56 | 1017.9 |
| 20260906172453 | 26 | 284 | 4.8 | 8.0 | 0.00 | 0.00 | 0.00 | 53 | 1018.1 |
| 20260906171948 | 26 | 123 | 0.0 | 0.0 | 0.00 | 0.00 | 0.00 | 55 | 1018.2 |
| 20260906171443 | 26 | 301 | 0.0 | 0.0 | 0.00 | 0.00 | 0.00 | 57 | 1018.4 |
| 20260906170939 | 26 | 299 | 0.0 | 0.0 | 0.00 | 0.00 | 0.00 | 56 | 1018.7 |
| 20260906170435 | 26 | 253 | 3.2 | 3.2 | 0.00 | 0.00 | 0.00 | 57 | 1018.3 |
| 20260906165932 | 25 | 255 | 6.4 | 8.0 | 0.00 | 0.00 | 0.00 | 61 | 1018.7 |
| 20260906165431 | 26 | 58 | 0.0 | 3.2 | 0.00 | 0.00 | 0.00 | 57 | 1018.8 |
| 20260906164926 | 25 | 318 | 0.0 | 3.2 | 0.00 | 0.00 | 0.00 | 59 | 1018.7 |
| 20260906164424 | 24 | 117 | 4.8 | 4.8 | 0.00 | 0.00 | 0.00 | 62 | 1018.6 |
| 20260906163920 | 24 | 40 | 4.8 | 4.8 | 0.00 | 0.00 | 0.00 | 62 | 1018.6 |
| 20260906163411 | 25 | 126 | 6.4 | 8.0 | 0.00 | 0.00 | 0.00 | 60 | 1018.7 |
| 20260906162909 | 23 | 92 | 11.3 | 11.3 | 0.00 | 0.00 | 0.00 | 65 | 1018.7 |
| 20260906162408 | 23 | 61 | 6.4 | 8.0 | 0.00 | 0.00 | 0.00 | 66 | 1018.4 |
| 20260906161903 | 23 | 26 | 1.6 | 3.2 | 0.00 | 0.00 | 0.00 | 65 | 1018.6 |
| 20260906161402 | 23 | 320 | 9.7 | 11.3 | 0.00 | 0.00 | 0.00 | 65 | 1018.7 |
| 20260906160901 | 23 | 329 | 8.0 | 11.3 | 0.00 | 0.00 | 0.00 | 66 | 1018.8 |
| 20260906160354 | 23 | 61 | 3.2 | 3.2 | 0.00 | 0.00 | 0.00 | 65 | 1018.8 |
| 20260906155852 | 22 | 6 | 0.0 | 3.2 | 0.00 | 0.00 | 0.00 | 68 | 1018.7 |
| 20260906155341 | 22 | 43 | 0.0 | 3.2 | 0.00 | 0.00 | 0.00 | 68 | 1018.9 |
| 20260906154838 | 22 | 61 | 3.2 | 4.8 | 0.00 | 0.00 | 0.00 | 68 | 1018.8 |
| 20260906154332 | 22 | 52 | 6.4 | 11.3 | 0.00 | 0.00 | 0.00 | 69 | 1018.8 |
| 20260906153830 | 22 | 22 | 4.8 | 4.8 | 0.00 | 0.00 | 0.00 | 69 | 1018.7 |
| 20260906153324 | 22 | 329 | 9.7 | 11.3 | 0.00 | 0.00 | 0.00 | 70 | 1018.8 |
| 20260906152819 | 21 | 320 | 1.6 | 3.2 | 0.00 | 0.00 | 0.00 | 71 | 1019.0 |
| 20260906152315 | 21 | 305 | 0.0 | 0.0 | 0.00 | 0.00 | 0.00 | 71 | 1019.0 |
| 20260906151814 | 21 | 351 | 4.8 | 4.8 | 0.00 | 0.00 | 0.00 | 72 | 1019.0 |
| 20260906151310 | 21 | 281 | 3.2 | 3.2 | 0.00 | 0.00 | 0.00 | 74 | 1019.0 |
| 20260906150805 | 21 | 291 | 0.0 | 3.2 | 0.00 | 0.00 | 0.00 | 73 | 1019.1 |
| 20260906150301 | 21 | 326 | 1.6 | 3.2 | 0.00 | 0.00 | 0.00 | 71 | 1019.2 |
| 20260906145759 | 21 | 296 | 0.0 | 0.0 | 0.00 | 0.00 | 0.00 | 74 | 1019.1 |
| 20260906145258 | 21 | 100 | 4.8 | 4.8 | 0.00 | 0.00 | 0.00 | 72 | 1019.0 |
| 20260906144753 | 21 | 51 | 8.0 | 11.3 | 0.00 | 0.00 | 0.00 | 73 | 1018.9 |
| 20260906144248 | 20 | 54 | 4.8 | 8.0 | 0.00 | 0.00 | 0.00 | 75 | 1018.8 |
| 20260906143748 | 20 | 67 | 0.0 | 0.0 | 0.00 | 0.00 | 0.00 | 75 | 1018.9 |
| 20260906143245 | 20 | 79 | 8.0 | 8.0 | 0.00 | 0.00 | 0.00 | 75 | 1019.2 |
| 20260906142744 | 20 | 346 | 3.2 | 4.8 | 0.00 | 0.00 | 0.00 | 76 | 1019.0 |
| 20260906142240 | 20 | 348 | 0.0 | 3.2 | 0.00 | 0.00 | 0.00 | 77 | 1019.2 |
| 20260906141738 | 20 | 331 | 4.8 | 4.8 | 0.00 | 0.00 | 0.00 | 76 | 1019.4 |
| 20260906141233 | 20 | 45 | 6.4 | 8.0 | 0.00 | 0.00 | 0.00 | 77 | 1019.1 |
| 20260906140732 | 19 | 320 | 1.6 | 4.8 | 0.00 | 0.00 | 0.00 | 78 | 1019.0 |
| 20260906140228 | 19 | 318 | 0.0 | 3.2 | 0.00 | 0.00 | 0.00 | 79 | 1019.0 |
| 20260906135724 | 18 | 319 | 0.0 | 0.0 | 0.00 | 0.00 | 0.00 | 79 | 1019.0 |
| 20260906135221 | 18 | 319 | 4.8 | 4.8 | 0.00 | 0.00 | 0.00 | 80 | 1019.0 |
| 20260906134716 | 18 | 319 | 3.2 | 4.8 | 0.00 | 0.00 | 0.00 | 82 | 1018.8 |
| 20260906134211 | 17 | 317 | 0.0 | 3.2 | 0.00 | 0.00 | 0.00 | 83 | 1018.7 |
| 20260906133707 | 18 | 318 | 4.8 | 4.8 | 0.00 | 0.00 | 0.00 | 83 | 1018.9 |
| 20260906133202 | 18 | 317 | 0.0 | 0.0 | 0.00 | 0.00 | 0.00 | 84 | 1019.1 |
| 20260906132657 | 17 | 325 | 4.8 | 11.3 | 0.00 | 0.00 | 0.00 | 84 | 1018.8 |
| 20260906132153 | 17 | 327 | 3.2 | 4.8 | 0.00 | 0.00 | 0.00 | 86 | 1018.8 |
| 20260906131648 | 17 | 327 | 0.0 | 0.0 | 0.00 | 0.00 | 0.00 | 87 | 1018.6 |
| 20260906131143 | 17 | 327 | 4.8 | 4.8 | 0.00 | 0.00 | 0.00 | 87 | 1018.8 |
| 20260906130638 | 17 | 331 | 3.2 | 4.8 | 0.00 | 0.00 | 0.00 | 88 | 1018.8 |
| 20260906130133 | 17 | 337 | 4.8 | 4.8 | 0.00 | 0.00 | 0.00 | 89 | 1018.6 |
| 20260906125625 | 16 | 341 | 0.0 | 0.0 | 0.00 | 0.00 | 0.00 | 90 | 1018.8 |
| 20260906125124 | 16 | 341 | 3.2 | 3.2 | 0.00 | 0.00 | 0.00 | 90 | 1018.6 |
| 20260906124620 | 16 | 341 | 0.0 | 0.0 | 0.00 | 0.00 | 0.00 | 90 | 1018.4 |
| 20260906124114 | 16 | 341 | 0.0 | 3.2 | 0.00 | 0.00 | 0.00 | 91 | 1018.4 |
| 20260906123614 | 16 | 344 | 0.0 | 3.2 | 0.00 | 0.00 | 0.00 | 91 | 1018.4 |
| 20260906123109 | 16 | 347 | 3.2 | 4.8 | 0.00 | 0.00 | 0.00 | 91 | 1018.8 |
| 20260906122603 | 16 | 353 | 0.0 | 0.0 | 0.00 | 0.00 | 0.00 | 91 | 1018.7 |
| 20260906122058 | 16 | 6 | 0.0 | 3.2 | 0.00 | 0.00 | 0.00 | 91 | 1018.4 |
| 20260906121554 | 16 | 14 | 0.0 | 0.0 | 0.00 | 0.00 | 0.00 | 90 | 1018.4 |
| 20260906121051 | 16 | 5 | 0.0 | 0.0 | 0.00 | 0.00 | 0.00 | 90 | 1018.4 |
| 20260906120545 | 16 | 37 | 0.0 | 0.0 | 0.00 | 0.00 | 0.00 | 90 | 1018.2 |
| 20260906120042 | 16 | 352 | 1.6 | 3.2 | 0.00 | 0.00 | 0.00 | 90 | 1018.3 |
| 20260906115536 | 16 | 14 | 3.2 | 3.2 | 0.00 | 0.00 | 0.00 | 89 | 1018.6 |
| 20260906115032 | 16 | 1 | 1.6 | 3.2 | 0.00 | 0.00 | 0.00 | 89 | 1018.4 |
| 20260906114526 | 17 | 35 | 3.2 | 3.2 | 0.00 | 0.00 | 0.00 | 89 | 1018.3 |
| 20260906114022 | 17 | 34 | 0.0 | 0.0 | 0.00 | 0.00 | 0.00 | 88 | 1018.3 |
| 20260906113520 | 17 | 33 | 4.8 | 4.8 | 0.00 | 0.00 | 0.00 | 88 | 1018.3 |
| 20260906113016 | 17 | 343 | 0.0 | 0.0 | 0.00 | 0.00 | 0.00 | 88 | 1018.4 |
| 20260906112511 | 17 | 344 | 0.0 | 0.0 | 0.00 | 0.00 | 0.00 | 88 | 1018.2 |
| 20260906112008 | 17 | 12 | 4.8 | 4.8 | 0.00 | 0.00 | 0.00 | 88 | 1018.2 |
| 20260906111507 | 17 | 346 | 0.0 | 0.0 | 0.00 | 0.00 | 0.00 | 88 | 1018.1 |
| 20260906111002 | 17 | 348 | 1.6 | 3.2 | 0.00 | 0.00 | 0.00 | 88 | 1018.2 |
| 20260906110456 | 17 | 8 | 0.0 | 0.0 | 0.00 | 0.00 | 0.00 | 87 | 1018.4 |
| 20260906105955 | 17 | 32 | 1.6 | 3.2 | 0.00 | 0.00 | 0.00 | 87 | 1018.2 |
| 20260906105452 | 17 | 23 | 0.0 | 3.2 | 0.00 | 0.00 | 0.00 | 86 | 1018.1 |
| 20260906104947 | 17 | 342 | 3.2 | 3.2 | 0.00 | 0.00 | 0.00 | 86 | 1018.1 |
| 20260906104446 | 17 | 355 | 0.0 | 0.0 | 0.00 | 0.00 | 0.00 | 86 | 1018.2 |
| 20260906103945 | 18 | 36 | 3.2 | 4.8 | 0.00 | 0.00 | 0.00 | 85 | 1018.1 |
| 20260906103444 | 18 | 49 | 1.6 | 3.2 | 0.00 | 0.00 | 0.00 | 85 | 1018.2 |
| 20260906102939 | 18 | 37 | 0.0 | 3.2 | 0.00 | 0.00 | 0.00 | 84 | 1018.0 |
| 20260906102439 | 18 | 345 | 0.0 | 0.0 | 0.00 | 0.00 | 0.00 | 84 | 1018.2 |
| 20260906101933 | 18 | 345 | 0.0 | 0.0 | 0.00 | 0.00 | 0.00 | 83 | 1018.3 |
| 20260906101428 | 18 | 2 | 0.0 | 0.0 | 0.00 | 0.00 | 0.00 | 82 | 1018.1 |
| 20260906100923 | 18 | 47 | 3.2 | 3.2 | 0.00 | 0.00 | 0.00 | 82 | 1018.1 |
| 20260906100418 | 18 | 327 | 1.6 | 3.2 | 0.00 | 0.00 | 0.00 | 81 | 1018.0 |
| 20260906095912 | 18 | 326 | 3.2 | 4.8 | 0.00 | 0.00 | 0.00 | 80 | 1018.2 |
| 20260906095408 | 18 | 326 | 4.8 | 4.8 | 0.00 | 0.00 | 0.00 | 80 | 1018.1 |
| 20260906094902 | 18 | 326 | 6.4 | 8.0 | 0.00 | 0.00 | 0.00 | 80 | 1018.0 |
| 20260906094356 | 18 | 351 | 0.0 | 3.2 | 0.00 | 0.00 | 0.00 | 79 | 1018.1 |
| 20260906093853 | 19 | 24 | 0.0 | 0.0 | 0.00 | 0.00 | 0.00 | 78 | 1018.1 |
| 20260906093348 | 19 | 20 | 3.2 | 3.2 | 0.00 | 0.00 | 0.00 | 78 | 1018.3 |
| 20260906092843 | 19 | 335 | 6.4 | 8.0 | 0.00 | 0.00 | 0.00 | 78 | 1017.6 |
| 20260906092337 | 19 | 42 | 1.6 | 3.2 | 0.00 | 0.00 | 0.00 | 77 | 1017.6 |
| 20260906091833 | 19 | 325 | 4.8 | 4.8 | 0.00 | 0.00 | 0.00 | 77 | 1017.4 |
| 20260906091329 | 19 | 326 | 4.8 | 8.0 | 0.00 | 0.00 | 0.00 | 77 | 1017.5 |
| 20260906090826 | 19 | 324 | 4.8 | 8.0 | 0.00 | 0.00 | 0.00 | 77 | 1017.2 |
| 20260906090324 | 19 | 325 | 3.2 | 4.8 | 0.00 | 0.00 | 0.00 | 77 | 1017.5 |
| 20260906085819 | 19 | 325 | 3.2 | 3.2 | 0.00 | 0.00 | 0.00 | 77 | 1017.3 |
| 20260906085318 | 19 | 326 | 0.0 | 3.2 | 0.00 | 0.00 | 0.00 | 77 | 1017.4 |
| 20260906084813 | 19 | 325 | 3.2 | 4.8 | 0.00 | 0.00 | 0.00 | 76 | 1017.6 |
| 20260906084312 | 20 | 325 | 4.8 | 4.8 | 0.00 | 0.00 | 0.00 | 75 | 1017.3 |
| 20260906083807 | 20 | 321 | 0.0 | 0.0 | 0.00 | 0.00 | 0.00 | 75 | 1017.3 |
| 20260906083303 | 20 | 321 | 3.2 | 3.2 | 0.00 | 0.00 | 0.00 | 75 | 1017.3 |
| 20260906082757 | 20 | 321 | 4.8 | 4.8 | 0.00 | 0.00 | 0.00 | 75 | 1017.5 |
| 20260906082252 | 20 | 320 | 6.4 | 8.0 | 0.00 | 0.00 | 0.00 | 74 | 1017.8 |
| 20260906081748 | 20 | 324 | 4.8 | 8.0 | 0.00 | 0.00 | 0.00 | 74 | 1017.6 |
| 20260906081243 | 20 | 323 | 6.4 | 8.0 | 0.00 | 0.00 | 0.00 | 74 | 1017.6 |
| 20260906080739 | 20 | 324 | 8.0 | 11.3 | 0.00 | 0.00 | 0.00 | 74 | 1017.6 |
| 20260906080236 | 20 | 329 | 3.2 | 4.8 | 0.00 | 0.00 | 0.00 | 75 | 1017.5 |
| 20260906075729 | 20 | 334 | 3.2 | 4.8 | 0.00 | 0.00 | 0.00 | 75 | 1017.9 |
| 20260906075224 | 20 | 41 | 3.2 | 4.8 | 0.00 | 0.00 | 0.00 | 76 | 1017.9 |
| 20260906074719 | 20 | 352 | 1.6 | 3.2 | 0.00 | 0.00 | 0.00 | 76 | 1017.6 |
| 20260906074218 | 20 | 43 | 1.6 | 3.2 | 0.00 | 0.00 | 0.00 | 75 | 1017.9 |
| 20260906073713 | 20 | 348 | 3.2 | 3.2 | 0.00 | 0.00 | 0.00 | 75 | 1017.6 |
| 20260906073208 | 20 | 343 | 6.4 | 8.0 | 0.00 | 0.00 | 0.00 | 75 | 1017.4 |
| 20260906072704 | 20 | 335 | 1.6 | 3.2 | 0.00 | 0.00 | 0.00 | 75 | 1017.8 |
| 20260906072159 | 20 | 331 | 8.0 | 8.0 | 0.00 | 0.00 | 0.00 | 73 | 1017.8 |
| 20260906071656 | 20 | 285 | 3.2 | 4.8 | 0.00 | 0.00 | 0.00 | 71 | 1017.6 |
| 20260906071155 | 20 | 265 | 8.0 | 8.0 | 0.00 | 0.00 | 0.00 | 70 | 1017.5 |
| 20260906070652 | 20 | 284 | 8.0 | 8.0 | 0.00 | 0.00 | 0.00 | 69 | 1017.5 |
| 20260906070147 | 20 | 281 | 4.8 | 8.0 | 0.00 | 0.00 | 0.00 | 70 | 1017.4 |
| 20260906065647 | 20 | 271 | 3.2 | 4.8 | 0.00 | 0.00 | 0.00 | 70 | 1017.3 |
| 20260906065142 | 20 | 264 | 4.8 | 4.8 | 0.00 | 0.00 | 0.00 | 70 | 1017.3 |
| 20260906064637 | 20 | 297 | 6.4 | 8.0 | 0.00 | 0.00 | 0.00 | 70 | 1017.3 |
| 20260906064132 | 20 | 317 | 0.0 | 3.2 | 0.00 | 0.00 | 0.00 | 69 | 1017.3 |
| 20260906063627 | 20 | 315 | 1.6 | 4.8 | 0.00 | 0.00 | 0.00 | 68 | 1017.6 |
| 20260906063118 | 20 | 282 | 1.6 | 3.2 | 0.00 | 0.00 | 0.00 | 68 | 1017.4 |
| 20260906062614 | 20 | 237 | 3.2 | 4.8 | 0.00 | 0.00 | 0.00 | 69 | 1017.5 |
| 20260906062112 | 20 | 177 | 3.2 | 3.2 | 0.00 | 0.00 | 0.00 | 69 | 1017.9 |
| 20260906061609 | 20 | 164 | 0.0 | 0.0 | 0.00 | 0.00 | 0.00 | 68 | 1018.0 |
| 20260906061108 | 20 | 14 | 4.8 | 4.8 | 0.00 | 0.00 | 0.00 | 67 | 1017.6 |
| 20260906060605 | 20 | 30 | 1.6 | 3.2 | 0.00 | 0.00 | 0.00 | 65 | 1017.5 |
| 20260906055557 | 21 | 1 | 0.0 | 3.2 | 0.00 | 0.00 | 0.00 | 62 | 1017.4 |
| 20260906055053 | 21 | 7 | 0.0 | 0.0 | 0.00 | 0.00 | 0.00 | 60 | 1017.6 |
| 20260906054553 | 22 | 54 | 1.6 | 3.2 | 0.00 | 0.00 | 0.00 | 58 | 1017.5 |
| 20260906054048 | 22 | 342 | 6.4 | 11.3 | 0.00 | 0.00 | 0.00 | 55 | 1017.2 |
| 20260906053544 | 23 | 334 | 8.0 | 11.3 | 0.00 | 0.00 | 0.00 | 52 | 1017.3 |
| 20260906053039 | 23 | 316 | 6.4 | 8.0 | 0.00 | 0.00 | 0.00 | 51 | 1017.4 |
| 20260906052535 | 23 | 308 | 3.2 | 4.8 | 0.00 | 0.00 | 0.00 | 51 | 1017.5 |
| 20260906052032 | 22 | 241 | 3.2 | 4.8 | 0.00 | 0.00 | 0.00 | 52 | 1017.4 |
| 20260906051527 | 22 | 326 | 3.2 | 3.2 | 0.00 | 0.00 | 0.00 | 52 | 1017.1 |
| 20260906051023 | 22 | 11 | 4.8 | 4.8 | 0.00 | 0.00 | 0.00 | 52 | 1016.9 |
| 20260906050518 | 22 | 18 | 8.0 | 11.3 | 0.00 | 0.00 | 0.00 | 51 | 1017.3 |
| 20260906050012 | 22 | 0 | 3.2 | 3.2 | 0.00 | 0.00 | 0.00 | 51 | 1016.9 |
| 20260906045511 | 22 | 29 | 1.6 | 3.2 | 0.00 | 0.00 | 0.00 | 51 | 1016.9 |
| 20260906045007 | 22 | 23 | 4.8 | 4.8 | 0.00 | 0.00 | 0.00 | 51 | 1016.8 |
| 20260906044502 | 22 | 56 | 1.6 | 3.2 | 0.00 | 0.00 | 0.00 | 48 | 1016.8 |
| 20260906043957 | 22 | 49 | 1.6 | 3.2 | 0.00 | 0.00 | 0.00 | 48 | 1016.7 |
| 20260906043453 | 22 | 317 | 0.0 | 0.0 | 0.00 | 0.00 | 0.00 | 48 | 1016.6 |
| 20260906042949 | 23 | 26 | 0.0 | 0.0 | 0.00 | 0.00 | 0.00 | 47 | 1016.5 |
| 20260906042448 | 23 | 39 | 0.0 | 0.0 | 0.00 | 0.00 | 0.00 | 46 | 1016.6 |
| 20260906041947 | 23 | 4 | 0.0 | 0.0 | 0.00 | 0.00 | 0.00 | 45 | 1016.4 |
| 20260906041444 | 23 | 347 | 0.0 | 0.0 | 0.00 | 0.00 | 0.00 | 44 | 1016.5 |
| 20260906040943 | 23 | 275 | 6.4 | 8.0 | 0.00 | 0.00 | 0.00 | 44 | 1016.5 |
| 20260906040438 | 23 | 287 | 3.2 | 4.8 | 0.00 | 0.00 | 0.00 | 44 | 1016.5 |
| 20260906035934 | 23 | 278 | 8.0 | 8.0 | 0.00 | 0.00 | 0.00 | 43 | 1016.1 |
| 20260906035429 | 23 | 29 | 3.2 | 8.0 | 0.00 | 0.00 | 0.00 | 43 | 1016.3 |
| 20260906034925 | 23 | 305 | 4.8 | 4.8 | 0.00 | 0.00 | 0.00 | 43 | 1016.3 |
| 20260906034419 | 24 | 38 | 3.2 | 4.8 | 0.00 | 0.00 | 0.00 | 43 | 1016.5 |
| 20260906033914 | 24 | 344 | 6.4 | 11.3 | 0.00 | 0.00 | 0.00 | 42 | 1016.0 |
| 20260906033409 | 23 | 318 | 0.0 | 0.0 | 0.00 | 0.00 | 0.00 | 44 | 1016.1 |
| 20260906032905 | 24 | 88 | 8.0 | 11.3 | 0.00 | 0.00 | 0.00 | 43 | 1016.3 |
| 20260906032401 | 24 | 267 | 3.2 | 3.2 | 0.00 | 0.00 | 0.00 | 43 | 1016.0 |
| 20260906031855 | 24 | 302 | 0.0 | 0.0 | 0.00 | 0.00 | 0.00 | 43 | 1015.9 |
| 20260906031351 | 24 | 306 | 0.0 | 0.0 | 0.00 | 0.00 | 0.00 | 43 | 1016.1 |
| 20260906030845 | 24 | 321 | 0.0 | 0.0 | 0.00 | 0.00 | 0.00 | 43 | 1015.8 |
| 20260906030340 | 25 | 292 | 1.6 | 3.2 | 0.00 | 0.00 | 0.00 | 43 | 1015.8 |
| 20260906025835 | 24 | 315 | 0.0 | 0.0 | 0.00 | 0.00 | 0.00 | 43 | 1015.7 |
| 20260906025329 | 25 | 302 | 1.6 | 4.8 | 0.00 | 0.00 | 0.00 | 43 | 1015.9 |
| 20260906024828 | 25 | 295 | 6.4 | 11.3 | 0.00 | 0.00 | 0.00 | 43 | 1015.8 |
| 20260906024327 | 25 | 310 | 6.4 | 11.3 | 0.00 | 0.00 | 0.00 | 42 | 1015.6 |
| 20260906023823 | 25 | 7 | 6.4 | 8.0 | 0.00 | 0.00 | 0.00 | 43 | 1015.7 |
| 20260906023319 | 25 | 332 | 1.6 | 4.8 | 0.00 | 0.00 | 0.00 | 43 | 1015.7 |
| 20260906022814 | 25 | 279 | 3.2 | 4.8 | 0.00 | 0.00 | 0.00 | 42 | 1015.6 |
| 20260906022309 | 25 | 244 | 0.0 | 0.0 | 0.00 | 0.00 | 0.00 | 41 | 1015.8 |
| 20260906021804 | 25 | 332 | 8.0 | 8.0 | 0.00 | 0.00 | 0.00 | 40 | 1015.7 |
| 20260906021258 | 26 | 307 | 8.0 | 14.5 | 0.00 | 0.00 | 0.00 | 40 | 1015.5 |
| 20260906020752 | 26 | 325 | 4.8 | 4.8 | 0.00 | 0.00 | 0.00 | 40 | 1015.2 |
| 20260906020247 | 26 | 292 | 1.6 | 3.2 | 0.00 | 0.00 | 0.00 | 40 | 1015.3 |
| 20260906015741 | 26 | 301 | 3.2 | 3.2 | 0.00 | 0.00 | 0.00 | 39 | 1015.6 |
| 20260906015239 | 26 | 255 | 6.4 | 8.0 | 0.00 | 0.00 | 0.00 | 38 | 1015.1 |
| 20260906014734 | 27 | 259 | 3.2 | 4.8 | 0.00 | 0.00 | 0.00 | 37 | 1015.1 |
| 20260906014230 | 27 | 312 | 8.0 | 14.5 | 0.00 | 0.00 | 0.00 | 35 | 1015.5 |
| 20260906013726 | 27 | 296 | 9.7 | 16.1 | 0.00 | 0.00 | 0.00 | 34 | 1015.1 |
| 20260906013226 | 28 | 280 | 11.3 | 16.1 | 0.00 | 0.00 | 0.00 | 33 | 1014.5 |
| 20260906012721 | 28 | 277 | 6.4 | 8.0 | 0.00 | 0.00 | 0.00 | 33 | 1014.7 |
| 20260906012216 | 28 | 277 | 9.7 | 11.3 | 0.00 | 0.00 | 0.00 | 33 | 1014.5 |
| 20260906011711 | 28 | 272 | 9.7 | 11.3 | 0.00 | 0.00 | 0.00 | 33 | 1014.7 |
| 20260906011206 | 28 | 281 | 4.8 | 8.0 | 0.00 | 0.00 | 0.00 | 32 | 1014.4 |
| 20260906010701 | 28 | 288 | 4.8 | 11.3 | 0.00 | 0.00 | 0.00 | 32 | 1014.7 |
| 20260906010158 | 29 | 282 | 9.7 | 11.3 | 0.00 | 0.00 | 0.00 | 32 | 1014.5 |
| 20260906005657 | 29 | 290 | 8.0 | 14.5 | 0.00 | 0.00 | 0.00 | 32 | 1014.5 |
| 20260906005156 | 30 | 290 | 12.9 | 16.1 | 0.00 | 0.00 | 0.00 | 32 | 1014.8 |
| 20260906004655 | 30 | 317 | 11.3 | 11.3 | 0.00 | 0.00 | 0.00 | 31 | 1014.5 |
| 20260906004151 | 30 | 290 | 12.9 | 16.1 | 0.00 | 0.00 | 0.00 | 30 | 1014.5 |
| 20260906003646 | 30 | 275 | 22.5 | 30.6 | 0.00 | 0.00 | 0.00 | 30 | 1014.5 |
| 20260906003142 | 31 | 245 | 14.5 | 16.1 | 0.00 | 0.00 | 0.00 | 31 | 1014.4 |
| 20260906002636 | 31 | 259 | 8.0 | 8.0 | 0.00 | 0.00 | 0.00 | 30 | 1014.2 |
| 20260906002131 | 31 | 280 | 12.9 | 19.3 | 0.00 | 0.00 | 0.00 | 30 | 1014.3 |
| 20260906001626 | 31 | 303 | 8.0 | 11.3 | 0.00 | 0.00 | 0.00 | 29 | 1014.2 |
| 20260906001126 | 32 | 306 | 8.0 | 11.3 | 0.00 | 0.00 | 0.00 | 28 | 1014.3 |
| 20260906000622 | 32 | 286 | 9.7 | 14.5 | 0.00 | 0.00 | 0.00 | 27 | 1014.1 |
| 20260906000117 | 32 | 272 | 11.3 | 14.5 | 0.00 | 0.00 | 0.00 | 27 | 1014.2 |
| 20260905235616 | 32 | 283 | 11.3 | 16.1 | 0.00 | 0.00 | 0.00 | 26 | 1014.2 |
| 20260905235111 | 33 | 359 | 6.4 | 11.3 | 0.00 | 0.00 | 0.00 | 27 | 1014.4 |
| 20260905234607 | 32 | 350 | 11.3 | 11.3 | 0.00 | 0.00 | 0.00 | 26 | 1014.4 |
| 20260905234102 | 33 | 240 | 4.8 | 8.0 | 0.00 | 0.00 | 0.00 | 26 | 1014.3 |
| 20260905233601 | 33 | 294 | 11.3 | 14.5 | 0.00 | 0.00 | 0.00 | 25 | 1014.3 |
| 20260905233056 | 33 | 289 | 6.4 | 8.0 | 0.00 | 0.00 | 0.00 | 24 | 1014.0 |
| 20260905232551 | 33 | 292 | 1.6 | 3.2 | 0.00 | 0.00 | 0.00 | 23 | 1014.2 |
| 20260905232047 | 34 | 246 | 4.8 | 4.8 | 0.00 | 0.00 | 0.00 | 22 | 1014.2 |
| 20260905231542 | 35 | 66 | 0.0 | 0.0 | 0.00 | 0.00 | 0.00 | 21 | 1014.0 |
| 20260905231038 | 35 | 235 | 0.0 | 3.2 | 0.00 | 0.00 | 0.00 | 21 | 1014.2 |
| 20260905230537 | 35 | 289 | 4.8 | 4.8 | 0.00 | 0.00 | 0.00 | 21 | 1014.1 |
| 20260905230036 | 35 | 251 | 1.6 | 3.2 | 0.00 | 0.00 | 0.00 | 20 | 1014.0 |
| 20260905225531 | 35 | 181 | 0.0 | 0.0 | 0.00 | 0.00 | 0.00 | 20 | 1014.0 |
| 20260905225026 | 35 | 103 | 8.0 | 8.0 | 0.00 | 0.00 | 0.00 | 21 | 1013.8 |
| 20260905224520 | 34 | 275 | 0.0 | 0.0 | 0.00 | 0.00 | 0.00 | 21 | 1013.7 |
| 20260905224020 | 35 | 124 | 8.0 | 11.3 | 0.00 | 0.00 | 0.00 | 22 | 1013.7 |
| 20260905223518 | 35 | 76 | 6.4 | 8.0 | 0.00 | 0.00 | 0.00 | 21 | 1013.8 |
| 20260905223014 | 35 | 140 | 8.0 | 14.5 | 0.00 | 0.00 | 0.00 | 21 | 1014.1 |
| 20260905222513 | 34 | 115 | 9.7 | 11.3 | 0.00 | 0.00 | 0.00 | 21 | 1013.8 |
| 20260905222008 | 35 | 104 | 11.3 | 14.5 | 0.00 | 0.00 | 0.00 | 21 | 1014.1 |
| 20260905221505 | 35 | 359 | 3.2 | 4.8 | 0.00 | 0.00 | 0.00 | 22 | 1014.0 |
| 20260905221001 | 35 | 348 | 6.4 | 8.0 | 0.00 | 0.00 | 0.00 | 22 | 1014.1 |
| 20260905220457 | 35 | 26 | 3.2 | 8.0 | 0.00 | 0.00 | 0.00 | 23 | 1014.2 |
| 20260905215955 | 34 | 55 | 8.0 | 8.0 | 0.00 | 0.00 | 0.00 | 23 | 1014.2 |
| 20260905215451 | 35 | 333 | 9.7 | 16.1 | 0.00 | 0.00 | 0.00 | 23 | 1014.1 |
| 20260905214948 | 35 | 307 | 0.0 | 3.2 | 0.00 | 0.00 | 0.00 | 23 | 1014.2 |
| 20260905214444 | 35 | 281 | 1.6 | 3.2 | 0.00 | 0.00 | 0.00 | 22 | 1014.2 |
| 20260905213944 | 35 | 45 | 8.0 | 8.0 | 0.00 | 0.00 | 0.00 | 22 | 1014.4 |
| 20260905213440 | 34 | 64 | 11.3 | 16.1 | 0.00 | 0.00 | 0.00 | 22 | 1014.5 |
| 20260905212935 | 35 | 39 | 9.7 | 14.5 | 0.00 | 0.00 | 0.00 | 22 | 1014.4 |